Location: Luxembourg
(49.6117°N, 6.1300°E)
Time: 21:11:38
(UTC+01:00)

ISS - Pass Details

Date: 27 January 2019
Orbit: 403 x 411 km, 51.6° (Epoch: 18 February)

Event Time Altitude Azimuth Distance (km) Brightness Sun altitude
Rises 18:20:35 0° 232° (SW) 2,324 1.5 -9.6°
Reaches altitude 10° 18:22:42 10° 226° (SW) 1,468 0.1 -9.9°
Maximum altitude 18:25:52 46° 152° (SSE) 558 -3.2 -10.4°
Enters shadow 18:28:11 17° 83° (E) 1,139 -2.2 -10.8°
